Dewpoint
73 70 69 67 55 48 48 48 51 51 55 59 58 56 58 59 54 51 66 69 70 71 72 73 73 73 74 74 74 74 74 73 74 74 75 75 74 74 74 73 73 73 72 73 73 72 72 72 71
70 68 67 63 42 45 46 50 50 52 57 60 60 59 59 58 62 66 67 72 72 73 74 74 74 75 74 74 74 74 74 74 74 75 76 75 74 75 74 73 73 72 72 72 71 71 71 71 71
68 66 61 59 42 43 46 50 51 55 59 58 59 61 61 61 65 66 69 71 73 73 74 74 75 74 74 74 75 75 75 74 75 75 75 75 75 73 72 72 72 72 72 71 71 71 71 71 71
63 60 59 49 35 40 49 50 52 55 57 60 61 60 63 65 65 67 70 72 72 74 74 75 74 74 75 74 76 75 75 75 75 76 75 74 73 73 72 72 72 72 71 71 71 70 70 71 71
62 56 45 36 38 50 52 52 53 54 58 60 61 60 62 65 67 69 70 71 72 74 74 74 75 75 76 76 75 75 74 75 76 75 74 73 72 72 72 72 72 72 71 71 71 71 71 71 71
51 49 38 40 43 51 52 52 54 58 61 61 61 61 63 67 67 69 70 71 73 75 75 75 75 75 76 75 75 75 75 74 75 74 74 74 73 73 72 72 71 71 70 70 70 71 71 71 72
49 43 40 42 43 50 52 56 59 59 59 60 62 61 65 67 68 70 70 71 73 75 75 75 75 75 75 76 75 75 75 74 73 74 74 74 74 73 72 72 71 71 71 71 71 71 72 72 73
48 40 42 43 44 47 52 54 60 59 59 62 62 59 61 67 69 70 71 72 74 75 75 75 75 75 76 76 75 74 74 73 73 73 73 73 73 72 72 72 73 71 72 72 72 71 72 73 73
50 41 39 41 42 45 52 55 60 61 61 58 60 62 63 68 69 69 70 71 72 73 75 75 75 75 76 76 75 74 73 73 73 73 73 74 73 72 70 70 71 70 72 72 71 71 71 70 72
45 43 41 44 43 48 50 54 56 59 58 59 61 63 66 67 68 68 69 70 71 72 73 74 75 75 75 76 75 74 74 74 74 74 74 73 71 70 67 70 69 68 70 72 71 71 71 71 70
44 41 44 43 45 44 47 51 54 57 56 59 60 63 65 66 68 68 69 70 69 71 73 74 74 75 75 75 75 74 74 74 73 73 73 72 70 70 70 68 69 69 71 71 71 71 70 70 70
28 41 43 43 47 45 47 51 55 56 57 60 63 64 65 65 67 67 68 69 70 71 72 73 74 74 74 74 74 74 74 73 73 72 73 71 70 69 68 68 69 70 70 69 69 70 69 70 69
25 39 41 44 45 47 48 50 53 55 58 61 64 65 65 66 67 68 69 69 70 70 71 72 74 74 74 73 73 73 73 72 72 73 72 72 70 69 68 70 70 70 70 69 69 70 69 68 68
38 42 42 44 44 46 50 53 54 57 59 60 64 65 65 66 67 67 68 68 69 70 70 72 73 73 73 73 72 72 72 71 72 71 72 72 71 70 70 69 69 68 69 69 70 69 68 68 68
40 39 41 42 45 47 49 49 54 57 58 60 62 63 64 65 66 66 67 67 69 69 69 71 73 73 72 72 71 71 71 71 71 71 71 71 71 70 69 69 68 68 68 69 69 68 66 66 66
39 38 39 43 46 48 48 47 56 57 57 57 58 60 62 63 64 63 64 66 68 68 70 71 72 72 72 72 72 71 71 70 70 70 70 70 71 71 70 68 68 68 68 68 68 66 66 66 66
32 37 38 42 46 47 48 49 56 57 56 56 57 58 59 60 61 62 64 65 65 67 70 70 72 72 72 72 72 71 71 71 70 71 70 70 70 70 70 69 68 69 69 68 67 66 66 65 65
34 33 39 40 44 44 48 48 55 57 56 56 57 57 58 59 59 61 63 64 64 66 69 70 71 72 72 72 72 72 72 71 72 71 70 70 70 70 70 70 69 69 69 68 67 67 66 65 65
29 28 37 40 40 45 45 48 53 55 55 55 56 57 57 58 59 60 62 64 63 65 68 69 70 71 72 71 71 71 70 70 70 71 71 70 69 70 69 69 68 69 68 67 67 67 66 66 66
21 17 29 33 40 43 47 48 49 52 53 54 54 55 56 57 58 58 60 62 63 64 67 68 68 70 72 71 71 71 71 70 70 70 71 71 70 70 69 69 68 69 67 66 65 65 65 65 66
24 23 22 30 39 46 47 47 48 51 51 52 53 54 55 56 57 58 59 60 63 64 66 67 67 69 71 72 71 71 71 71 70 70 71 71 70 70 69 69 68 65 66 64 64 64 64 63 65
23 23 23 30 35 34 44 37 47 49 51 53 54 55 56 58 58 58 60 62 63 64 66 67 67 69 71 71 70 70 70 69 66 66 70 68 66 64 66 64 64 65 65 64 64 66 65 64 62
23 23 20 25 31 36 42 36 42 48 49 51 53 54 56 59 58 58 59 62 63 64 66 67 69 70 71 71 71 70 68 65 62 65 67 64 62 63 62 63 65 64 63 63 64 63 64 64 63
23 18 17 28 31 31 39 35 36 46 47 49 50 53 56 58 59 59 60 61 63 65 67 69 69 70 71 71 71 70 67 61 62 64 62 59 59 59 63 65 63 62 62 62 62 62 63 62 63
18 16 14 21 29 29 33 36 33 43 46 48 49 50 55 57 60 60 61 62 63 66 67 69 70 70 71 71 70 69 64 60 62 62 60 59 59 62 62 61 61 58 59 61 62 62 61 61 62
16 16 14 10 18 25 27 34 34 37 44 47 47 48 53 55 58 61 62 62 63 66 67 69 70 69 69 69 67 63 59 58 60 61 59 59 59 60 60 59 58 56 58 61 61 62 61 60 62
16 14 14 13 22 19 20 24 25 34 38 44 44 45 50 53 56 60 62 62 63 65 67 68 69 69 68 65 63 57 58 58 57 59 60 56 57 59 59 58 57 58 60 61 60 60 60 61 61
14 17 14 18 11 12 18 20 18 30 35 43 43 42 48 53 55 59 61 61 64 65 67 68 69 69 67 63 60 57 59 59 59 60 59 56 56 59 58 58 58 58 59 60 60 59 60 60 60
19 15 17 17 18 12 12 16 27 24 33 42 43 43 46 51 55 57 59 60 62 65 66 67 68 68 67 63 60 59 59 60 61 60 59 58 59 58 58 58 59 60 60 59 59 60 61 60 59
14 14 15 13 17 19 18 17 27 31 39 44 43 43 46 50 54 56 57 58 59 62 64 66 67 67 66 63 61 60 60 61 61 60 59 58 58 58 59 60 60 59 58 58 60 59 59 59 59
Wind_Speed
7 3 2 2 2 7 4 3 3 6 5 1 2 8 12 13 4 6 7 10 11 9 11 15 20 20 20 21 20 21 20 21 18 16 17 17 17 16 15 13 12 12 10 10 9 6 6 6 6
7 3 5 2 5 10 4 4 7 6 9 18 12 9 12 6 6 13 11 12 13 11 11 14 19 20 21 21 20 20 21 20 18 16 16 17 17 15 14 13 11 10 9 9 7 5 4 4 4
5 5 2 2 3 8 12 8 13 13 15 6 7 11 4 4 12 15 13 15 11 10 11 16 17 19 21 20 19 19 20 20 18 17 16 16 15 14 13 12 10 8 7 7 6 4 2 3 3
3 2 2 2 2 1 5 13 18 15 6 11 19 14 7 9 11 10 18 15 14 10 11 15 17 19 20 20 19 19 19 18 17 15 15 15 14 12 11 10 9 7 6 5 4 3 2 1 1
5 2 3 7 5 4 10 17 19 12 6 14 8 8 8 4 16 21 16 16 15 12 12 14 17 17 17 18 17 16 15 15 14 13 13 13 12 11 10 9 8 6 5 4 3 4 3 4 3
2 2 9 4 4 7 13 16 17 10 10 14 15 12 5 17 21 18 15 14 13 12 11 12 16 16 16 17 15 14 13 14 13 13 12 12 11 10 9 8 6 5 4 3 4 6 5 5 4
5 5 8 8 11 9 9 13 8 19 15 10 13 8 10 16 18 17 15 14 12 10 11 11 12 16 16 16 16 15 15 15 14 13 11 10 10 10 9 8 6 5 4 5 6 7 6 6 5
3 2 4 2 14 10 11 3 9 15 11 16 14 9 14 18 19 17 14 12 11 11 11 12 12 12 13 14 18 18 16 14 13 11 10 9 9 8 7 6 6 7 7 6 7 7 7 6 5
4 5 3 6 9 9 17 8 11 7 16 6 7 12 16 24 20 17 15 12 12 12 12 13 13 13 11 10 12 14 13 13 13 12 11 8 6 5 4 5 6 5 7 8 7 6 6 5 2
5 6 9 10 13 18 22 21 19 9 16 4 16 20 24 25 22 21 20 18 17 15 13 14 14 14 12 10 10 10 10 11 11 10 9 7 6 5 4 3 4 5 6 8 4 4 5 7 4
8 17 18 11 14 30 24 18 5 26 12 15 34 29 29 25 22 22 21 21 24 19 14 14 13 14 13 10 11 10 11 10 10 9 8 7 4 2 1 1 2 0 4 3 6 4 5 7 7
10 22 13 11 14 20 28 17 11 11 6 24 26 31 29 26 24 21 21 18 16 17 16 14 14 13 14 13 12 11 11 10 10 10 10 8 5 5 5 3 2 1 2 2 3 4 5 6 7
13 6 19 19 18 22 19 16 13 10 18 23 26 28 28 26 24 22 23 20 18 19 17 16 16 16 17 13 13 12 12 11 11 11 11 9 8 9 8 7 6 4 2 1 1 2 4 7 8
6 12 20 18 16 13 22 14 11 13 21 25 28 28 26 26 25 20 19 19 19 20 20 18 19 17 14 14 14 14 11 12 11 11 12 11 11 11 10 6 5 4 3 2 2 4 5 7 7
22 14 15 9 8 10 21 6 12 24 25 25 26 25 25 25 23 23 24 22 22 19 19 21 20 15 17 17 14 10 13 13 13 13 13 12 13 12 12 8 5 5 4 5 5 5 5 6 7
14 4 21 11 12 15 5 9 19 24 28 26 24 23 24 25 26 23 23 23 20 18 20 20 17 17 18 15 13 11 10 11 10 9 10 9 9 11 12 10 9 7 5 5 4 5 7 7 6
9 27 11 14 16 11 3 10 22 25 25 25 22 23 23 21 21 20 22 23 22 23 22 21 19 18 18 15 13 13 14 11 9 7 8 6 7 10 11 9 9 6 5 5 4 4 3 7 10
24 21 15 24 24 12 13 14 29 27 25 26 25 23 24 22 25 25 23 22 21 21 21 20 18 17 17 15 12 9 7 6 5 7 7 6 3 2 8 8 7 5 3 4 4 5 4 6 9
22 14 24 21 12 15 17 19 31 29 25 25 24 24 23 23 23 22 22 22 18 18 19 19 20 18 15 12 11 8 9 6 6 8 7 6 5 7 7 6 4 4 3 4 5 4 6 6 2
7 7 16 5 13 9 11 15 27 31 33 32 29 27 28 25 22 21 22 21 20 22 21 20 22 21 20 15 10 5 6 5 6 5 7 7 8 7 7 7 5 3 4 4 4 5 2 2 1
8 8 7 11 16 6 14 2 20 22 17 20 23 25 22 27 27 25 23 24 21 21 24 23 24 22 18 17 9 5 3 1 2 4 5 9 10 9 7 5 6 4 4 5 4 3 4 1 1
13 14 15 9 26 19 15 15 21 24 24 21 23 23 26 27 27 28 26 23 23 23 21 22 22 22 18 18 16 13 11 10 7 6 8 13 10 9 8 7 7 7 6 5 3 3 2 2 1
13 10 13 13 26 11 16 5 9 22 23 32 30 28 27 26 28 29 29 28 26 22 22 21 21 20 18 18 18 17 12 9 6 5 13 10 7 6 8 8 7 7 6 4 3 3 3 2 2
11 1 4 5 10 19 24 18 10 25 43 41 28 28 30 29 28 28 26 24 23 20 21 20 21 22 20 20 20 19 16 11 10 11 13 9 5 5 7 8 9 7 6 5 4 3 4 4 4
4 4 6 5 5 9 21 15 18 33 38 37 40 33 32 29 29 29 28 26 23 25 26 24 24 25 23 22 21 21 18 15 16 17 15 11 8 6 10 9 8 6 6 3 3 4 4 5 6
11 17 15 8 12 13 8 14 23 28 34 33 25 32 29 32 31 33 32 30 30 29 29 28 25 26 23 22 23 21 20 18 17 17 12 13 12 11 10 9 8 8 5 3 3 6 7 5 7
10 12 15 16 2 4 7 7 10 9 21 26 31 26 30 33 31 33 30 30 31 29 31 32 30 27 25 25 22 23 21 19 17 17 15 14 11 10 11 11 11 9 6 5 4 4 6 7 6
25 10 7 3 17 19 8 7 9 10 10 22 24 29 31 30 27 27 29 29 32 33 32 29 29 30 27 26 25 23 23 21 17 16 16 14 13 12 11 11 11 9 9 8 6 8 8 8 10
6 8 4 4 6 20 21 14 11 10 13 28 34 37 28 28 28 29 32 32 35 33 29 29 26 26 25 25 23 22 22 20 17 18 17 16 14 12 11 11 11 11 11 10 9 11 11 10 11
17 23 20 21 9 3 8 18 9 14 15 23 23 23 22 24 26 29 31 32 29 31 28 29 26 27 27 25 25 25 22 21 20 19 18 16 16 13 12 10 10 10 11 10 11 12 12 11 12
Wind_Direction
131 164 154 163 160 101 140 196 85 133 98 345 61 112 109 41 80 139 131 152 145 146 142 133 141 143 138 133 132 136 137 135 134 133 129 128 128 128 128 134 131 119 116 119 129 140 133 116 107
158 157 43 325 97 133 144 154 159 143 118 118 82 76 49 67 61 117 122 152 141 138 137 137 136 135 133 135 136 132 130 137 139 141 139 137 136 136 135 131 123 130 136 136 138 148 134 127 127
138 33 80 23 106 164 151 191 151 118 143 94 105 78 62 84 110 138 141 144 133 128 129 133 129 133 135 136 136 135 138 144 147 149 147 146 140 137 134 131 132 135 138 142 151 155 152 159 141
114 52 18 59 83 323 157 172 137 136 105 85 109 83 86 119 137 140 144 138 129 125 125 129 135 138 137 143 146 147 150 151 153 156 154 147 141 140 139 133 136 153 153 158 158 180 184 253 240
5 84 51 62 339 70 125 148 145 136 96 109 103 105 97 89 118 133 142 138 139 135 133 138 142 145 144 149 151 152 150 152 149 149 150 148 145 149 144 145 155 167 172 189 217 241 263 276 282
221 187 85 62 47 98 135 151 147 126 112 115 106 105 93 125 135 144 143 143 143 136 136 140 141 148 151 156 157 156 152 149 147 152 157 154 157 157 156 165 178 196 202 245 270 279 278 283 291
255 127 114 116 122 155 166 153 155 136 137 128 142 101 130 141 148 145 144 140 139 141 142 141 148 155 160 165 167 167 167 161 163 164 167 165 166 171 180 192 206 229 233 267 290 295 300 295 296
243 65 88 81 159 171 161 118 151 131 118 123 138 148 162 165 152 144 135 136 142 153 160 160 159 162 167 171 177 177 176 172 180 178 180 186 190 190 203 217 221 237 253 265 288 298 299 299 304
153 46 185 165 178 152 159 142 181 110 138 143 174 144 153 152 147 138 138 144 159 176 167 169 175 167 180 176 183 183 182 184 191 194 192 198 204 200 209 238 240 241 276 275 274 289 299 311 313
164 188 233 180 169 162 178 159 165 136 163 112 115 120 145 153 154 154 161 168 175 181 185 179 176 181 186 190 192 187 190 192 198 194 188 187 207 213 236 276 261 246 286 298 298 299 326 348 341
197 222 222 182 190 168 166 172 161 149 190 178 151 149 157 163 168 168 175 179 183 183 182 194 189 187 189 200 197 202 206 208 203 203 195 200 202 162 153 63 86 18 303 325 343 353 341 343 339
210 231 210 166 147 146 164 152 138 162 217 160 152 152 161 170 176 179 179 183 183 183 188 192 199 194 201 208 204 205 205 213 211 213 206 201 196 192 226 198 174 43 91 111 10 354 331 326 322
246 205 185 150 147 143 147 156 149 191 142 144 150 157 168 178 182 186 187 184 184 185 193 195 198 198 209 210 209 208 214 217 223 217 218 209 203 204 199 211 207 183 199 334 341 314 329 315 322
156 150 141 148 160 144 137 132 127 155 146 148 158 166 174 180 184 188 190 190 185 187 191 196 203 199 204 211 209 211 216 227 215 226 226 222 213 211 206 222 223 225 251 281 270 286 309 316 316
135 122 120 151 153 127 114 102 166 153 156 154 164 172 177 187 184 187 190 192 190 191 188 193 202 203 199 213 218 215 223 233 223 230 226 218 216 217 208 219 239 258 254 271 280 296 311 315 317
132 95 152 192 157 167 107 175 159 163 163 165 171 177 184 193 189 187 189 192 194 189 190 193 196 199 198 206 208 199 193 187 193 204 208 201 201 217 217 212 226 242 249 271 277 295 310 310 308
122 171 190 181 193 163 175 144 175 171 174 175 181 184 189 194 200 193 191 189 190 192 191 192 190 193 191 193 205 201 195 202 204 194 196 194 224 227 224 212 238 249 257 254 261 282 278 305 314
180 191 191 174 200 195 183 180 168 177 175 183 190 195 198 196 197 195 194 193 190 191 193 192 188 192 191 195 201 206 203 211 209 204 212 196 199 182 197 199 231 228 238 267 261 275 295 280 294
175 204 201 200 188 176 187 161 175 182 186 190 194 198 204 208 204 193 194 196 191 191 189 191 190 197 187 192 195 202 216 213 215 222 219 201 206 181 191 206 200 178 207 256 262 272 274 294 309
171 193 212 295 180 155 172 177 180 185 195 192 190 197 201 206 201 196 195 195 190 192 196 193 198 200 202 195 190 180 197 219 223 223 213 216 188 180 181 190 202 219 247 281 263 233 256 253 292
182 211 219 206 166 59 139 142 199 211 211 210 204 203 201 193 195 198 193 192 194 192 193 196 198 203 201 197 184 166 125 132 214 221 195 191 190 187 201 214 208 217 217 225 230 216 213 249 309
252 224 235 161 163 196 177 211 214 211 216 217 214 206 203 195 195 190 191 190 191 198 195 196 200 203 203 193 194 191 199 207 222 217 193 181 190 195 192 204 212 203 194 206 214 194 203 153 131
238 206 238 199 186 166 195 204 225 188 218 225 216 211 206 197 193 192 190 188 192 187 192 199 200 203 199 194 193 196 201 208 206 189 170 180 198 201 207 201 193 192 207 205 205 200 201 195 189
237 279 19 59 173 202 198 204 220 185 215 224 218 212 202 198 198 195 194 189 188 188 190 195 198 206 202 199 198 199 202 190 185 183 180 188 198 240 209 185 183 197 206 202 215 229 214 213 217
166 198 276 264 201 219 201 197 231 209 216 217 207 206 201 197 196 194 191 188 187 188 194 196 198 208 205 203 201 202 198 182 189 187 187 186 188 182 165 173 183 197 210 221 255 247 233 212 203
203 205 211 220 222 221 155 201 230 225 221 217 212 207 198 198 198 196 193 188 192 195 196 196 199 206 204 202 202 195 185 186 189 189 196 194 187 180 182 193 193 220 223 267 290 255 243 239 228
228 224 220 231 172 180 208 251 292 281 227 204 205 195 204 202 198 197 192 192 196 199 201 199 200 201 198 198 193 190 185 184 185 193 182 187 197 196 195 197 209 226 246 246 270 273 266 258 251
224 176 216 191 227 240 212 215 208 223 224 206 199 202 206 201 197 192 192 194 199 204 205 203 203 201 193 192 192 189 190 188 190 189 197 192 197 201 191 202 218 227 241 253 256 263 262 261 267
189 208 184 216 202 228 247 243 214 240 235 197 200 207 197 192 189 191 195 199 201 204 202 203 202 198 193 191 188 187 186 185 189 188 192 198 196 196 202 213 225 235 242 253 255 259 263 267 266
214 225 218 222 227 193 222 239 219 220 228 196 202 199 192 188 187 194 197 202 204 206 202 203 200 196 196 189 184 187 180 184 186 195 201 201 205 201 213 213 224 235 246 257 256 261 266 263 268